Alice, TX

4:51 AM CST on February 25, 2017 (GMT -0600)
Alice International

Weather History for KALI - November, 2012

Change the Weather History Date:

Thursday, November 1, 2012

  Actual Average Record
Temperature  
Mean Temperature 76 °F -  
Max Temperature 90 °F 78 °F 93 °F (2016)
Min Temperature 62 °F 58 °F 50 °F (1999)
Cooling Degree Days 11    
Growing Degree Days 26 (Base 50)    
Moisture  
Dew Point 65 °F    
Average Humidity 84    
Maximum Humidity 100    
Minimum Humidity 36    
Precipitation  
Precipitation 0.00 in - - ()
Sea Level Pressure  
Sea Level Pressure 30.01 in    
Wind  
Wind Speed 4 mph (SSE)    
Max Wind Speed 16 mph    
Max Gust Speed 17 mph    
Visibility 4 miles    
Events Fog    
Averages and records for this station are not official NWS values.
T = Trace of Precipitation, MM = Missing Value Source: NWS Daily Summary

Daily Weather History Graph

Daily Weather History Graph

Search for Another Location

Airport or City:

Trip Planner

Search our weather history database for the weather conditions in past years. The results will help you decide how hot, cold, wet, or windy it might be!

Date:

Astronomy

Nov. 01, 2012 Rise Set
Actual Time 7:43 AM CDT 6:47 PM CDT
Civil Twilight 7:19 AM CDT 7:11 PM CDT
Nautical Twilight 6:51 AM CDT 7:39 PM CDT
Astronomical Twilight 6:23 AM CDT 8:06 PM CDT
Moon 8:56 PM CDT (11/1) 10:06 AM CDT (11/1)
Length of Visible Light 11h 52m
Length of Day
11h 04m
Waning Gibbous, 93% of the Moon is Illuminated
Nov 1
Waning Gibbous
Nov 6
Last Quarter
Nov 13
New
Nov 20
First Quarter
Nov 28
Full

Hourly Weather History & Observations

Time (CDT) Temp. Heat Index Dew Point Humidity Pressure Visibility Wind Dir Wind Speed Gust Speed Precip Events Conditions
12:53 AM 71.1 °F - 68.0 °F 90% 30.01 in 10.0 mi SE 4.6 mph - N/A   Clear
1:53 AM 69.1 °F - 66.9 °F 93% 30.01 in 9.0 mi SSE 3.5 mph - N/A   Clear
2:28 AM 69.8 °F - 68.0 °F 94% 30.02 in 1.8 mi SSE 3.5 mph - N/A   Partly Cloudy
2:37 AM 69.8 °F - 66.2 °F 88% 30.02 in 0.5 mi SE 3.5 mph - N/A Fog Fog
2:44 AM 68.0 °F - 66.2 °F 94% 30.02 in 0.5 mi SSE 3.5 mph - N/A Fog Fog
2:53 AM 68.0 °F - 66.9 °F 96% 30.01 in 0.5 mi SSE 3.5 mph - N/A Fog Fog
3:21 AM 69.8 °F - 68.0 °F 94% 30.01 in 0.5 mi SSE 3.5 mph - N/A Fog Fog
3:41 AM 69.8 °F - 68.0 °F 94% 30.01 in 1.0 mi South 3.5 mph - N/A   Mist
3:45 AM 69.8 °F - 68.0 °F 94% 30.01 in 3.0 mi South 3.5 mph - N/A   Scattered Clouds
3:53 AM 68.0 °F - 66.9 °F 96% 30.00 in 1.2 mi Calm Calm - N/A   Partly Cloudy
3:55 AM 68.0 °F - 66.2 °F 94% 30.01 in 0.8 mi Calm Calm - N/A   Mist
4:03 AM 68.0 °F - 66.2 °F 94% 30.01 in 0.5 mi South 3.5 mph - N/A Fog Fog
4:17 AM 69.8 °F - 66.2 °F 88% 30.00 in 0.8 mi South 3.5 mph - N/A   Mist
4:22 AM 69.8 °F - 66.2 °F 88% 30.00 in 1.2 mi South 3.5 mph - N/A   Scattered Clouds
4:28 AM 69.8 °F - 68.0 °F 94% 30.00 in 3.0 mi South 4.6 mph - N/A   Partly Cloudy
4:46 AM 68.0 °F - 66.2 °F 94% 30.00 in 2.5 mi South 3.5 mph - N/A   Clear
4:53 AM 68.0 °F - 66.9 °F 96% 29.99 in 2.0 mi South 3.5 mph - N/A   Clear
4:56 AM 68.0 °F - 66.2 °F 94% 30.00 in 1.0 mi SSE 3.5 mph - N/A   Mist
5:00 AM 66.2 °F - 64.4 °F 94% 30.00 in 0.5 mi SE 3.5 mph - N/A Fog Fog
5:12 AM 66.2 °F - 64.4 °F 94% 30.00 in 0.2 mi Calm Calm - N/A Fog Fog
5:44 AM 66.2 °F - 64.4 °F 94% 30.00 in 0.2 mi Calm Calm - N/A Fog Fog
5:53 AM 64.9 °F - 64.0 °F 97% 29.99 in 0.2 mi SE 3.5 mph - N/A Fog Fog
6:00 AM 64.4 °F - 62.6 °F 94% 30.00 in 0.2 mi SE 3.5 mph - N/A Fog Fog
6:44 AM 64.4 °F - 64.4 °F 100% 30.00 in 0.5 mi Calm Calm - N/A Fog Fog
6:51 AM 64.4 °F - 64.4 °F 100% 30.01 in 0.5 mi Calm Calm - N/A Fog Fog
6:53 AM 64.9 °F - 64.0 °F 97% 30.00 in 0.8 mi Calm Calm - N/A   Mist
7:01 AM 64.4 °F - 62.6 °F 94% 30.01 in 0.2 mi Calm Calm - N/A Fog Fog
7:10 AM 64.4 °F - 62.6 °F 94% 30.01 in 0.2 mi Calm Calm - N/A Fog Fog
7:21 AM 64.4 °F - 62.6 °F 94% 30.01 in 0.5 mi Calm Calm - N/A Fog Fog
7:25 AM 62.6 °F - 62.6 °F 100% 30.01 in 0.2 mi Calm Calm - N/A Fog Fog
7:34 AM 62.6 °F - 62.6 °F 100% 30.02 in 0.2 mi Calm Calm - N/A Fog Fog
7:53 AM 63.0 °F - 62.1 °F 97% 30.02 in 0.2 mi Calm Calm - N/A Fog Fog
8:53 AM 66.9 °F - 66.0 °F 97% 30.04 in 0.2 mi Calm Calm - N/A Fog Fog
9:01 AM 68.0 °F - 66.2 °F 94% 30.04 in 0.5 mi Calm Calm - N/A Fog Fog
9:07 AM 68.0 °F - 66.2 °F 94% 30.05 in 1.0 mi Calm Calm - N/A   Mist
9:20 AM 69.8 °F - 68.0 °F 94% 30.05 in 3.0 mi Calm Calm - N/A   Overcast
9:40 AM 71.6 °F - 69.8 °F 94% 30.05 in 10.0 mi Calm Calm - N/A   Scattered Clouds
9:53 AM 75.0 °F - 70.0 °F 84% 30.06 in 10.0 mi SSE 3.5 mph - N/A   Clear
10:53 AM 82.0 °F 85.9 °F 70.0 °F 67% 30.06 in 10.0 mi South 10.4 mph - N/A   Partly Cloudy
11:23 AM 84.2 °F 88.4 °F 69.8 °F 62% 30.06 in 10.0 mi South 8.1 mph - N/A   Mostly Cloudy
11:35 AM 84.2 °F 87.3 °F 68.0 °F 58% 30.05 in 10.0 mi SW 11.5 mph - N/A   Scattered Clouds
11:53 AM 84.0 °F 86.3 °F 66.0 °F 55% 30.05 in 10.0 mi South 5.8 mph - N/A   Scattered Clouds
12:53 PM 87.1 °F 88.3 °F 64.0 °F 46% 30.02 in 10.0 mi SSE 9.2 mph - N/A   Mostly Cloudy
1:53 PM 88.0 °F 87.6 °F 60.1 °F 39% 29.99 in 10.0 mi SSE 8.1 mph 16.1 mph N/A   Partly Cloudy
2:53 PM 90.0 °F 90.0 °F 61.0 °F 38% 29.96 in 10.0 mi South 9.2 mph 17.3 mph N/A   Clear
3:53 PM 89.1 °F 88.2 °F 59.0 °F 36% 29.94 in 10.0 mi South 11.5 mph - N/A   Clear
4:53 PM 87.1 °F 87.5 °F 62.1 °F 43% 29.94 in 10.0 mi SSE 15.0 mph - N/A   Clear
5:53 PM 84.0 °F 84.9 °F 63.0 °F 49% 29.94 in 10.0 mi SE 16.1 mph - N/A   Clear
6:53 PM 79.0 °F - 62.1 °F 56% 29.96 in 10.0 mi SE 11.5 mph - N/A   Clear
7:53 PM 75.9 °F - 63.0 °F 64% 29.97 in 10.0 mi SE 10.4 mph - N/A   Clear
8:53 PM 75.0 °F - 63.0 °F 66% 29.99 in 10.0 mi SE 9.2 mph - N/A   Clear
9:53 PM 71.1 °F - 63.0 °F 75% 30.00 in 10.0 mi SSE 4.6 mph - N/A   Clear
10:53 PM 69.1 °F - 64.9 °F 87% 30.00 in 10.0 mi SSE 5.8 mph - N/A   Clear
11:53 PM 68.0 °F - 64.9 °F 90% 30.00 in 10.0 mi SE 3.5 mph - N/A   Clear